Regional Weather Roundup
Issued by NWS Grand Forks, ND

Home | Current Version | Previous Version | Graphics & Text | Print | Product List | Glossary On
Versions: 1 2 3 4 5 6 7 8 9 10 11 12 13 14 15 16 17 18 19 20 21 22 23 24 25 26 27 28 29 30 31 32 33 34 35 36 37 38 39 40 41 42 43 44 45 46 47 48 49 50
000
ASUS43 KFGF 240410
RWRFGF
PRAIRIE TO PINES  WEATHER ROUNDUP
NATIONAL WEATHER SERVICE EASTERN NORTH DAKOTA/GRAND FORKS ND
1000 PM CST MON JAN 23 2017

 **SATELLITE DATA USED TO AUGMENT SKY COVER AT AUTOMATED STATIONS**
 *****  WEATHER ACROSS EASTERN NORTH DAKOTA  *****

CITY           SKY/WX    TMP DP  RH WIND       PRES   REMARKS
GRAND FORKS    CLOUDY    27  20  75 W12       29.83R WCI  17
GRAND FRKS AFB CLOUDY    26  20  79 NW12      29.83R WCI  15
DEVILS LAKE    CLOUDY    22  19  89 W12       29.80S WCI  10
FARGO          CLOUDY    33  26  75 W3        29.84R
WAHPETON ARPT  CLOUDY    32  28  86 W5        29.84S
$$

 ***** WEATHER ACROSS CENTRAL AND WESTERN NORTH DAKOTA  *****

CITY           SKY/WX    TMP DP  RH WIND       PRES   REMARKS
BISMARCK       CLOUDY    30  25  81 N3        29.83R
MINOT          CLOUDY    24  17  74 W16       29.79F WCI  11
JAMESTOWN      CLOUDY    28  24  85 W6        29.81R WCI  22
MINOT AFB      CLOUDY    22  17  83 W12       29.79S WCI  10
GARRISON         N/A     20  17  88 W7        29.80S WCI  11
WILLISTON      CLOUDY    22  19  89 W5        29.82F WCI  16
DICKINSON      CLOUDY    23  21  92 SW7       29.77R WCI  15
HETTINGER      FOG       21  20  96 CALM      29.80R VSB 1/4
$$

 *****  OTHER AIRPORT OBSERVATIONS IN OUR AREA  *****

CITY           SKY/WX    TMP DP  RH WIND       PRES   REMARKS
WALHALLA       NOT AVBL
GRAFTON AIRPOR CLOUDY    27  23  86 W13       29.82S WCI  16
VALLEY CITY AR CLOUDY    28  28 100 W7        29.84R WCI  21
CANDO          NOT AVBL
CAVALIER APRT  CLOUDY    27  23  86 SW9       29.78F WCI  17
GWINNER        CLOUDY    32  30  93 N3        29.83S
SHEYENNE NWR     N/A     30  24  79 N3        29.95S
ROLLA            N/A    N/A N/A N/A MISG        N/A
 ***** THE ABOVE OBSERVATIONS ARE NON NWS ARE NOT QUALITY
       CONTROLLED AND MAY MIS-REPORT RAIN FOR SNOW...
$$

  *****  WEATHER ACROSS NORTHERN MINNESOTA  *****

CITY           SKY/WX    TMP DP  RH WIND       PRES   REMARKS
FLAG ISLAND    CLOUDY    28  25  86 S3        29.77F
WARROAD        CLOUDY    28  25  86 SW6       29.79S WCI  22
ROSEAU         CLOUDY    28  23  80 SW9       29.79S WCI  20
HALLOCK        CLOUDY    28  25  86 SW9       29.79S WCI  20
THF RVR FALLS  CLOUDY    27  23  85 W10       29.81S WCI  17
BAUDETTE       CLOUDY    29  24  82 SW3       29.78F
WASKISH        CLOUDY    30  27  86 W7        29.80S WCI  23
CROOKSTON      CLOUDY    28  25  86 W9        29.83S WCI  20
GREENBUSH NDAW   N/A     27  23  86 W10         N/A  WCI  17
$$
  *****  WEATHER ACROSS CENTRAL AND WEST MINNESOTA  *****

CITY           SKY/WX    TMP DP  RH WIND       PRES   REMARKS
FOSSTON        CLOUDY    27  21  80 SW3       29.82R
BEMIDJI        CLOUDY    28  23  80 W7        29.80S WCI  21
PARK RAPIDS    CLOUDY    30  23  75 CALM      29.79F
ELBOW LAKE     CLOUDY    30  27  89 SW3       29.83S FOG
WADENA         CLOUDY    28  25  86 W3          N/A
DETROIT LAKES  CLOUDY    30  27  86 NW3       29.82S
MOORHEAD       CLOUDY    30  27  86 CALM      29.84S
FERGUS FALLS   CLOUDY    30  30 100 CALM      29.87R
MORRIS MN      CLOUDY    30  28  93 CALM      29.83R
STAPLES        CLOUDY    28  27  93 CALM      29.82R
$$
  *****  WEATHER ELSEWHERE ACROSS MINNESOTA  *****

CITY           SKY/WX    TMP DP  RH WIND       PRES   REMARKS
DULUTH         LGT SNOW  33  31  92 NW5       29.79R FOG
INTRNTL FALLS  CLOUDY    29  24  82 W9        29.79R WCI  20
ELY            CLOUDY    32  32 100 CALM      29.78S FOG
CLOQUET        LGT SNOW  32  30  93 CALM      29.80R
WHEATON        CLOUDY    30  27  86 CALM      29.86S
BRAINERD       CLOUDY    31  25  78 NW3       29.82S
HIBBING        CLOUDY    30  25  81 W3        29.79S
ALEXANDRIA     CLOUDY    30  25  81 CALM      29.82S
SAINT CLOUD    CLOUDY    31  25  78 NW3       29.83S
MINNEAPOLIS    CLOUDY    33  27  78 NW6       29.85R
$$

  *****  WEATHER ACROSS SOUTH DAKOTA  *****

CITY           SKY/WX    TMP DP  RH WIND       PRES   REMARKS
SIOUX FALLS    CLOUDY    32  30  92 SE8       29.82S WCI  25
BROOKINGS      CLOUDY    30  27  88 SE8       29.80R WCI  22
WATERTOWN      CLOUDY    28  26  92 E5        29.79S WCI  23
HURON          CLOUDY    31  29  92 SE7       29.80S WCI  24
SISSETON         N/A     31  29  92 SE5       29.82S
ABERDEEN       CLOUDY    29  25  85 N3        29.83R FOG
MITCHELL       CLOUDY    32  29  88 SE12      29.81R WCI  23
PIERRE         CLOUDY    29  26  89 E7        29.76S WCI  22
MOBRIDGE       LGT SNOW  28  24  85 NE8       29.78S FOG     WCI  20
RAPID CITY     FOG       23  21  92 N14       29.72S VSB 1/2 WCI  11
$$

  *****  SOME WEATHER IN NEARBY STATES *****

CITY           SKY/WX    TMP DP  RH WIND       PRES   REMARKS
GLASGOW MT     CLOUDY    22  17  81 NW9       29.83R WCI  12
GREAT FALLS MT CLOUDY    17  15  92 NW7       29.81S WCI   8
CHEYENNE WY    LGT SNOW  31  30  96 W7        29.56R FOG     WCI  24
SCOTTSBLUFF NE CLOUDY    33  27  78 NE17G26   29.57S WCI  22
OMAHA NE       CLOUDY    32  27  81 SE10      29.84S WCI  24
DES MOINES IA  CLOUDY    33  28  81 S3        29.88R
DAVENPORT IA   CLOUDY    33  32  96 W5        29.85S
CHICAGO IL     CLOUDY    38  35  89 N5        29.80S
EAU CLAIRE WI  CLOUDY    33  33 100 CALM      29.82S FOG
LA CROSSE WI   CLOUDY    35  33  92 N3        29.85R
$$

  *****  SOME NATIONAL WEATHER *****

CITY           SKY/WX    TMP DP  RH WIND       PRES   REMARKS
LA GUARDIA NY  RAIN      39  35  86 NE31G38   29.51F FOG
RALEIGH NC     CLOUDY    44  39  82 VRB6      29.47R
ATLANTA GA     MOCLDY    50  44  80 NW16G28   29.71R
NEW ORLEANS LA FAIR      54  47  77 CALM      29.89S
OKLAHOMA CITY  FAIR      48  31  51 S13       29.69F
ALBUQUERQUE NM MOCLDY    44  27  51 SE7       29.63F
SALT LAKE CITY CLOUDY    33  29  85 NE6       29.61S
LOS ANGELES CA FAIR      50  41  71 CALM      29.88R
BOISE ID       CLOUDY    29  24  82 NW10      29.68R WCI  20
SEATTLE WA     FAIR      41  37  86 NE5       29.96R
$$

*** WEATHER ACROSS MANITOBA...SASKATCHEWAN AND ONTARIO ***
                ***ONTARIO***

CITY           SKY/WX    TMP DP  RH WIND       PRES   REMARKS
GERALDTON      DRZL/FOG  34  34 100 SE2       29.77S VSB 1/8
THUNDER BAY    CLOUDY    32  32 100 W2        29.80S
SIOUX LOOKOUT  CLOUDY    32  32 100 VRB2      29.75S FOG
TORONTO        CLOUDY    36  28  75 E12G20    29.77F
BIG TROUT LK   LGT SNOW  25  23  93 VRB2      29.79S
PICKLE LAKE    NOT AVBL
DRYDEN         CLOUDY    32  30  93 W6        29.75S
KENORA         FLURRIES  27  25  93 SW13      29.76R WCI  16
$$
                *** MANITOBA***

CITY           SKY/WX    TMP DP  RH WIND       PRES   REMARKS
BRANDON        FLURRIES  23  19  86 W15       29.73S WCI  10
DAUPHIN        LGT SNOW  28  28 100 NW6       29.71S VSB 1   WCI  22
ISLAND LAKE    LGT SNOW  30  30 100 VRB2      29.74S FOG
PILOT MOUND      N/A     23  19  86 W7          N/A  WCI  15
THE PAS        FLURRIES  16  12  86 N9        29.83S WCI   4
THOMPSON       FLURRIES  16  12  86 N6        29.83S WCI   7
WINNIPEG       FLURRIES  27  23  86 SW8       29.75S WCI  18
LYNN LAKE      FLURRIES   7   5  92 NW5       29.87S WCI  -2
CHURCHILL      LGT SNOW  14  12  92 E20       29.99F DRFTSNOWWCI  -3
GILLAM         FLURRIES  19  18  93 NE9       29.86S WCI   9
$$
                ***SASKATCHEWAN***

CITY           SKY/WX    TMP DP  RH WIND       PRES   REMARKS
ESTEVAN        FLURRIES  19  18  93 W13       29.79S WCI   7
KINDERSLEY     FLURRIES  12   9  85 NW6       29.84S WCI   3
LLOYDMINSTER   FLURRIES  10   9  92 N6        29.88S WCI   1
PRINCE ALBERT  FLURRIES  14   9  79 N6        29.87R WCI   5
REGINA         CLOUDY    16  12  86 NW13      29.81R WCI   2
YORKTON        FLURRIES  19  18  93 W12G17    29.74S WCI   7
N. BATTLEFORD  FLURRIES  10   7  85 N6        29.90R WCI   1
LA RONGE       FLURRIES   9   3  78 N5        29.91S WCI   0
SASKATOON      FLURRIES  10   7  85 NW9       29.87S WCI  -2
SWIFT CURRENT  FLURRIES  12  10  92 NW8       29.79S WCI   1
$$
NOTE: THESE ARE AUTOMATED STATIONS WITH LIMITED QUALITY CONTROL
      "FAIR" INDICATES FEW OR NO CLOUDS BELOW 12,000 FEET WITH NO
      SIGNIFICANT WEATHER AND/OR OBSTRUCTIONS TO VISIBILITY.
      SKY/WX - SKY CONDITION AND SIGNIFICANT WEATHER.
      TMP - AIR TEMPERATURE.    DP   - DEWPOINT TEMPERATURE.
      RH  - RELATIVE HUMIDITY.  PRES - PRESSURE.
      HX  - HEAT INDEX.         WCI  - WIND CHILL INDEX.
$



USA.gov is the U.S. government's official web portal to all federal, state and local government web resources and services.